EXP784 RPVM-RPVE

Flight info

Callsign EXP784
Flight time N/A
Altitude 26000
Route KEVAN1Q KEVAN TR2 BCD TR8 KLO KLO7A
Aircraft A20N/M-SDE2E3FGHIRWXY/LB1

Departure

Time N/A
Airport Mactan Cebu International Airport (RPVM)

Arrival

Time 2026-05-07 15:26
Airport Godofredo P. Ramos Airport (RPVE)
Time Latitude Longitude Altitude Speed Heading
2026-05-07 15:00 10.68240 123.22288 25096 ft 432 kts 287°
2026-05-07 15:00 10.69293 123.19415 25526 ft 436 kts 292°
2026-05-07 15:01 10.70560 123.16634 25847 ft 439 kts 295°
2026-05-07 15:01 10.71893 123.13870 25889 ft 439 kts 295°
2026-05-07 15:01 10.73266 123.11038 25897 ft 439 kts 295°
2026-05-07 15:01 10.74596 123.08269 25899 ft 440 kts 295°
2026-05-07 15:02 10.75950 123.05494 25897 ft 441 kts 298°
2026-05-07 15:02 10.77639 123.02903 25899 ft 443 kts 308°
2026-05-07 15:02 10.79778 123.00600 25901 ft 445 kts 318°
2026-05-07 15:02 10.82217 122.98692 25906 ft 447 kts 324°
2026-05-07 15:03 10.84757 122.96916 25904 ft 448 kts 326°
2026-05-07 15:03 10.87365 122.95131 25903 ft 448 kts 326°
2026-05-07 15:03 10.89922 122.93374 25899 ft 448 kts 326°
2026-05-07 15:03 10.92505 122.91589 25901 ft 448 kts 325°
2026-05-07 15:04 10.95048 122.89822 25903 ft 448 kts 325°
2026-05-07 15:04 10.97604 122.88037 25903 ft 447 kts 324°
2026-05-07 15:04 11.00156 122.86250 25904 ft 445 kts 324°
2026-05-07 15:04 11.02720 122.84454 25904 ft 443 kts 324°
2026-05-07 15:05 11.05216 122.82703 25904 ft 441 kts 324°
2026-05-07 15:05 11.07678 122.80976 25860 ft 441 kts 324°
2026-05-07 15:05 11.10065 122.79303 25612 ft 438 kts 324°
2026-05-07 15:05 11.12540 122.77575 25364 ft 436 kts 324°
2026-05-07 15:06 11.15034 122.75837 25114 ft 435 kts 324°
2026-05-07 15:06 11.17519 122.74102 24863 ft 433 kts 324°
2026-05-07 15:06 11.19994 122.72369 24613 ft 431 kts 324°
2026-05-07 15:06 11.22439 122.70654 24364 ft 430 kts 324°
2026-05-07 15:07 11.24913 122.68916 24112 ft 428 kts 324°
2026-05-07 15:07 11.27334 122.67217 23864 ft 427 kts 324°
2026-05-07 15:07 11.29773 122.65505 23614 ft 425 kts 324°
2026-05-07 15:07 11.32189 122.63809 23364 ft 423 kts 324°
2026-05-07 15:08 11.34614 122.62110 23105 ft 422 kts 324°
2026-05-07 15:08 11.37022 122.60421 22829 ft 420 kts 324°
2026-05-07 15:08 11.39393 122.58756 22516 ft 418 kts 324°
2026-05-07 15:08 11.41749 122.57101 22110 ft 416 kts 324°
2026-05-07 15:09 11.44152 122.55411 21651 ft 412 kts 324°
2026-05-07 15:09 11.46483 122.53772 21183 ft 409 kts 324°
2026-05-07 15:09 11.48823 122.52126 20703 ft 405 kts 324°
2026-05-07 15:09 11.51121 122.50509 20227 ft 402 kts 324°
2026-05-07 15:10 11.53392 122.48910 19751 ft 399 kts 324°
2026-05-07 15:10 11.55660 122.47313 19275 ft 395 kts 324°
2026-05-07 15:10 11.57891 122.45741 18802 ft 392 kts 324°
2026-05-07 15:10 11.60135 122.44160 18327 ft 388 kts 324°
2026-05-07 15:11 11.62339 122.42606 17858 ft 385 kts 324°
2026-05-07 15:11 11.64507 122.41079 17392 ft 382 kts 324°
2026-05-07 15:11 11.66659 122.39507 16922 ft 378 kts 320°
2026-05-07 15:11 11.68626 122.37769 16455 ft 374 kts 314°
2026-05-07 15:12 11.70387 122.35841 15991 ft 371 kts 309°
2026-05-07 15:12 11.72006 122.33814 15539 ft 367 kts 307°
2026-05-07 15:12 11.73573 122.31792 15088 ft 364 kts 307°
2026-05-07 15:12 11.75133 122.29778 14634 ft 362 kts 307°
2026-05-07 15:13 11.76679 122.27788 14184 ft 359 kts 307°
2026-05-07 15:13 11.78226 122.25806 13732 ft 357 kts 307°
2026-05-07 15:13 11.79761 122.23845 13283 ft 354 kts 307°
2026-05-07 15:13 11.81286 122.21898 12835 ft 351 kts 307°
2026-05-07 15:14 11.82816 122.19946 12359 ft 349 kts 307°
2026-05-07 15:14 11.84328 122.18019 11720 ft 351 kts 307°
2026-05-07 15:14 11.85833 122.16099 11183 ft 349 kts 307°
2026-05-07 15:14 11.87334 122.14185 10700 ft 345 kts 308°
2026-05-07 15:15 11.88838 122.12265 10215 ft 339 kts 308°
2026-05-07 15:15 11.90259 122.10454 9813 ft 317 kts 308°
2026-05-07 15:15 11.91595 122.08750 9376 ft 299 kts 308°
2026-05-07 15:15 11.92845 122.07155 8975 ft 282 kts 308°
2026-05-07 15:16 11.94055 122.05608 8355 ft 276 kts 308°
2026-05-07 15:16 11.95240 122.04095 7681 ft 279 kts 309°
2026-05-07 15:16 11.96414 122.02594 7335 ft 275 kts 309°
2026-05-07 15:16 11.97608 122.01072 6987 ft 273 kts 309°
2026-05-07 15:17 11.98791 121.99575 6524 ft 276 kts 307°
2026-05-07 15:17 12.00005 121.98030 5923 ft 284 kts 307°
2026-05-07 15:17 12.01248 121.96436 5519 ft 284 kts 307°
2026-05-07 15:17 12.02469 121.94869 5157 ft 282 kts 306°
2026-05-07 15:18 12.03378 121.93166 4909 ft 272 kts 282°
2026-05-07 15:18 12.03449 121.91298 4720 ft 259 kts 255°
2026-05-07 15:18 12.02758 121.89661 4550 ft 247 kts 235°
2026-05-07 15:18 12.01790 121.88251 4392 ft 238 kts 232°
2026-05-07 15:19 12.00822 121.86907 4237 ft 230 kts 232°
2026-05-07 15:19 11.99898 121.85609 4081 ft 223 kts 232°
2026-05-07 15:19 11.99020 121.84360 3932 ft 215 kts 233°
2026-05-07 15:19 11.98509 121.83623 3807 ft 213 kts 233°
2026-05-07 15:20 11.97660 121.82391 3477 ft 215 kts 232°
2026-05-07 15:20 11.96794 121.81142 3196 ft 213 kts 232°
2026-05-07 15:20 11.95937 121.79955 3045 ft 205 kts 223°
2026-05-07 15:20 11.94731 121.79330 2842 ft 193 kts 179°
2026-05-07 15:21 11.93490 121.79655 2757 ft 178 kts 149°
2026-05-07 15:21 11.92503 121.80381 2419 ft 179 kts 140°
2026-05-07 15:21 11.91512 121.81187 2063 ft 181 kts 140°
2026-05-07 15:21 11.90525 121.81966 2010 ft 183 kts 141°
2026-05-07 15:22 11.89498 121.82756 1999 ft 182 kts 142°
2026-05-07 15:22 11.88487 121.83514 1990 ft 182 kts 143°
2026-05-07 15:22 11.87537 121.84356 1950 ft 178 kts 120°
2026-05-07 15:22 11.87363 121.85527 1949 ft 170 kts 72°
2026-05-07 15:23 11.87854 121.86607 1879 ft 163 kts 59°
2026-05-07 15:23 11.88420 121.87561 1598 ft 151 kts 57°
2026-05-07 15:23 11.88944 121.88423 1416 ft 140 kts 59°
2026-05-07 15:23 11.89409 121.89291 1254 ft 139 kts 63°
2026-05-07 15:24 11.89853 121.90178 1051 ft 139 kts 63°
2026-05-07 15:24 11.90280 121.91061 853 ft 138 kts 63°
2026-05-07 15:24 11.90709 121.91930 679 ft 138 kts 62°
2026-05-07 15:24 11.91173 121.92784 506 ft 138 kts 63°
2026-05-07 15:25 11.91604 121.93658 336 ft 137 kts 63°
2026-05-07 15:25 11.92029 121.94524 159 ft 137 kts 64°
2026-05-07 15:25 11.92452 121.95377 32 ft 131 kts 64°
2026-05-07 15:25 11.92736 121.95956 31 ft 58 kts 62°
2026-05-07 15:26 11.92799 121.96115 31 ft 8 kts 122°
2026-05-07 15:26 11.92741 121.96146 31 ft 9 kts 158°
2026-05-07 15:26 11.92679 121.96175 31 ft 10 kts 152°
2026-05-07 15:26 11.92611 121.96196 31 ft 8 kts 168°
2026-05-07 15:27 11.92564 121.96217 31 ft 6 kts 152°
2026-05-07 15:27 11.92535 121.96240 31 ft 4 kts 109°
2026-05-07 15:27 11.92543 121.96265 31 ft 1 kts 62°
2026-05-07 15:27 11.92551 121.96281 31 ft 3 kts 63°
2026-05-07 15:28 11.92556 121.96290 31 ft 0 kts 62°